Location: Chapel Hill
(35.9134°N, 79.0560°W)
Time: 04:55:56
(UTC-04:00)

ACS3 Solar Sail - Pass Details

Date: 23 June 2024
Orbit: 993 x 1022 km, 97.4° (Epoch: 23 July)

Event Time Altitude Azimuth Distance (km) Brightness Sun altitude
Exits shadow 21:21:06 - 107° (ESE) 2,947 6.7 -8.4°
Reaches altitude 10° 21:21:52 10° 101° (ESE) 2,763 6.6 -8.5°
Maximum altitude 21:25:37 17° 64° (ENE) 2,296 6.5 -9.1°
Drops below altitude 10° 21:29:22 10° 26° (NNE) 2,764 7.3 -9.7°
Sets 21:32:45 0° 8° (N) 3,716 8.3 -10.2°
